| time (UTC) | temp F | wind direction | speed MPH | gust MPH | rain 1hr in | rain 24hr in | rain mn in | humidity % | barometer mb |
| 20260505083010 | 51 | 115 | 1.0 | 4.0 | 0.00 | 0.84 | 0.01 | 94 | 1016.5 |
| 20260505082512 | 51 | 105 | 1.0 | 3.0 | 0.00 | 0.84 | 0.01 | 94 | 1016.6 |
| 20260505082011 | 51 | 105 | 1.0 | 4.0 | 0.00 | 0.84 | 0.01 | 94 | 1016.7 |
| 20260505081514 | 51 | 115 | 1.0 | 3.0 | 0.00 | 0.84 | 0.01 | 94 | 1016.6 |
| 20260505081010 | 51 | 116 | 1.0 | 2.0 | 0.01 | 0.84 | 0.01 | 94 | 1016.6 |
| 20260505080517 | 51 | 116 | 1.0 | 4.0 | 0.01 | 0.84 | 0.01 | 94 | 1016.5 |
| 20260505080009 | 51 | 119 | 1.0 | 3.0 | 0.01 | 0.84 | 0.01 | 94 | 1016.5 |
| 20260505075510 | 51 | 121 | 1.0 | 2.0 | 0.01 | 0.84 | 0.01 | 94 | 1016.4 |
| 20260505075009 | 51 | 121 | 0.0 | 1.0 | 0.01 | 0.84 | 0.01 | 94 | 1016.4 |
| 20260505074508 | 51 | 121 | 0.0 | 2.0 | 0.02 | 0.84 | 0.01 | 94 | 1016.4 |
| 20260505074009 | 51 | 121 | 0.0 | 2.0 | 0.03 | 0.84 | 0.01 | 93 | 1016.4 |
| 20260505073511 | 51 | 121 | 0.0 | 2.0 | 0.03 | 0.84 | 0.01 | 93 | 1016.6 |
| 20260505073007 | 51 | 121 | 0.0 | 2.0 | 0.04 | 0.84 | 0.01 | 93 | 1016.6 |
| 20260505072508 | 51 | 121 | 0.0 | 4.0 | 0.04 | 0.84 | 0.01 | 93 | 1016.7 |
| 20260505072007 | 51 | 121 | 0.0 | 4.0 | 0.04 | 0.84 | 0.01 | 93 | 1016.7 |
| 20260505071506 | 51 | 116 | 1.0 | 2.0 | 0.04 | 0.84 | 0.01 | 93 | 1016.5 |
| 20260505071006 | 51 | 115 | 0.0 | 1.0 | 0.03 | 0.83 | 0.00 | 93 | 1016.6 |
| 20260505070505 | 51 | 115 | 0.0 | 2.0 | 0.03 | 0.83 | 0.00 | 93 | 1016.6 |
| 20260505070003 | 51 | 115 | 0.0 | 2.0 | 0.03 | 0.83 | 0.83 | 93 | 1016.9 |
| 20260505065504 | 51 | 115 | 1.0 | 2.0 | 0.03 | 0.83 | 0.83 | 93 | 1016.9 |
| 20260505065003 | 51 | 115 | 0.0 | 2.0 | 0.03 | 0.83 | 0.83 | 93 | 1016.6 |
| 20260505064503 | 51 | 66 | 0.0 | 2.0 | 0.03 | 0.82 | 0.82 | 93 | 1016.5 |
| 20260505064005 | 51 | 61 | 0.0 | 2.0 | 0.02 | 0.81 | 0.81 | 93 | 1016.6 |
| 20260505063503 | 51 | 61 | 0.0 | 2.0 | 0.01 | 0.80 | 0.80 | 93 | 1016.5 |
| 20260505063002 | 51 | 61 | 0.0 | 2.0 | 0.02 | 0.80 | 0.80 | 93 | 1016.7 |
| 20260505062502 | 51 | 61 | 0.0 | 2.0 | 0.02 | 0.80 | 0.80 | 93 | 1016.8 |
| 20260505062003 | 51 | 61 | 0.0 | 2.0 | 0.03 | 0.80 | 0.80 | 93 | 1016.9 |
| 20260505061501 | 51 | 61 | 0.0 | 4.0 | 0.03 | 0.80 | 0.80 | 93 | 1016.9 |
| 20260505061001 | 51 | 60 | 1.0 | 4.0 | 0.04 | 0.80 | 0.80 | 93 | 1017.0 |
| 20260505060501 | 51 | 59 | 1.0 | 4.0 | 0.05 | 0.80 | 0.80 | 93 | 1016.8 |
| 20260505060002 | 51 | 59 | 0.0 | 2.0 | 0.06 | 0.80 | 0.80 | 93 | 1016.6 |
| 20260505055501 | 51 | 59 | 0.0 | 2.0 | 0.07 | 0.80 | 0.80 | 93 | 1016.8 |
| 20260505055001 | 51 | 59 | 0.0 | 2.0 | 0.08 | 0.80 | 0.80 | 93 | 1016.8 |
| 20260505054505 | 51 | 59 | 1.0 | 2.0 | 0.10 | 0.79 | 0.79 | 93 | 1016.8 |
| 20260505054001 | 51 | 56 | 1.0 | 4.0 | 0.11 | 0.79 | 0.79 | 93 | 1016.7 |
| 20260505053500 | 51 | 57 | 1.0 | 4.0 | 0.12 | 0.79 | 0.79 | 93 | 1016.8 |
| 20260505053001 | 51 | 59 | 1.0 | 5.0 | 0.12 | 0.78 | 0.78 | 93 | 1017.0 |
| 20260505052501 | 51 | 60 | 3.0 | 5.0 | 0.13 | 0.78 | 0.78 | 93 | 1017.0 |
| 20260505052001 | 51 | 51 | 3.0 | 5.0 | 0.14 | 0.77 | 0.77 | 93 | 1016.9 |
| 20260505051600 | 51 | 48 | 1.0 | 5.0 | 0.14 | 0.77 | 0.77 | 93 | 1016.9 |
| 20260505051100 | 51 | 49 | 2.0 | 5.0 | 0.15 | 0.76 | 0.76 | 93 | 1016.9 |
| 20260505050600 | 51 | 58 | 2.0 | 3.0 | 0.17 | 0.76 | 0.76 | 93 | 1016.9 |
| 20260505050109 | 51 | 59 | 1.0 | 3.0 | 0.19 | 0.75 | 0.75 | 93 | 1016.9 |
| 20260505041607 | 51 | 49 | 2.0 | 5.0 | 0.18 | 0.63 | 0.63 | 92 | 1017.0 |
| 20260505041057 | 51 | 105 | 2.0 | 5.0 | 0.17 | 0.61 | 0.61 | 92 | 1016.8 |
| 20260505040557 | 51 | 103 | 2.0 | 5.0 | 0.16 | 0.59 | 0.59 | 92 | 1016.9 |
| 20260505035557 | 51 | 103 | 2.0 | 6.0 | 0.13 | 0.53 | 0.53 | 92 | 1016.7 |
| 20260505035055 | 51 | 60 | 1.0 | 4.0 | 0.14 | 0.52 | 0.52 | 92 | 1016.6 |
| 20260505034610 | 51 | 59 | 1.0 | 6.0 | 0.14 | 0.50 | 0.50 | 92 | 1016.6 |
| 20260505034055 | 51 | 60 | 2.0 | 6.0 | 0.14 | 0.49 | 0.49 | 92 | 1016.8 |
| 20260505033555 | 51 | 65 | 4.0 | 8.0 | 0.14 | 0.48 | 0.48 | 92 | 1017.1 |
| 20260505033056 | 51 | 57 | 5.0 | 8.0 | 0.13 | 0.47 | 0.47 | 92 | 1017.1 |
| 20260505032555 | 51 | 63 | 2.0 | 7.0 | 0.14 | 0.46 | 0.46 | 92 | 1017.0 |
| 20260505032054 | 51 | 58 | 4.0 | 7.0 | 0.13 | 0.45 | 0.45 | 92 | 1016.9 |
| 20260505031554 | 51 | 42 | 4.0 | 6.0 | 0.14 | 0.45 | 0.45 | 92 | 1016.9 |
| 20260505031053 | 51 | 56 | 2.0 | 5.0 | 0.13 | 0.44 | 0.44 | 92 | 1016.8 |
| 20260505030556 | 51 | 55 | 1.0 | 6.0 | 0.12 | 0.43 | 0.43 | 92 | 1016.8 |
| 20260505025552 | 52 | 62 | 2.0 | 6.0 | 0.10 | 0.40 | 0.40 | 92 | 1017.2 |
| 20260505025053 | 52 | 70 | 3.0 | 7.0 | 0.09 | 0.38 | 0.38 | 92 | 1017.4 |
| 20260505024607 | 52 | 61 | 5.0 | 7.0 | 0.08 | 0.36 | 0.36 | 92 | 1017.4 |
| 20260505024050 | 52 | 55 | 2.0 | 5.0 | 0.07 | 0.35 | 0.35 | 92 | 1017.2 |
| 20260505023550 | 52 | 44 | 2.0 | 5.0 | 0.06 | 0.34 | 0.34 | 92 | 1017.1 |
| 20260505023050 | 52 | 107 | 1.0 | 4.0 | 0.05 | 0.33 | 0.33 | 92 | 1016.9 |
| 20260505022551 | 52 | 98 | 0.0 | 5.0 | 0.04 | 0.32 | 0.32 | 92 | 1016.8 |
| 20260505022051 | 52 | 108 | 1.0 | 5.0 | 0.05 | 0.32 | 0.32 | 92 | 1016.9 |
| 20260505021549 | 52 | 111 | 1.0 | 5.0 | 0.04 | 0.31 | 0.31 | 92 | 1016.7 |
| 20260505021048 | 52 | 105 | 1.0 | 5.0 | 0.04 | 0.31 | 0.31 | 92 | 1016.3 |
| 20260505020548 | 52 | 150 | 1.0 | 2.0 | 0.05 | 0.31 | 0.31 | 92 | 1015.8 |
| 20260505015548 | 52 | 151 | 0.0 | 6.0 | 0.04 | 0.30 | 0.30 | 92 | 1015.7 |
| 20260505015050 | 52 | 153 | 4.0 | 6.0 | 0.04 | 0.28 | 0.28 | 92 | 1015.6 |
| 20260505014548 | 52 | 109 | 1.0 | 5.0 | 0.04 | 0.28 | 0.28 | 92 | 1015.7 |
| 20260505014048 | 52 | 101 | 2.0 | 5.0 | 0.05 | 0.28 | 0.28 | 92 | 1016.1 |
| 20260505013548 | 52 | 92 | 1.0 | 3.0 | 0.06 | 0.28 | 0.28 | 92 | 1016.2 |
| 20260505013047 | 52 | 102 | 2.0 | 3.0 | 0.06 | 0.28 | 0.28 | 92 | 1016.4 |
| 20260505012550 | 52 | 124 | 1.0 | 4.0 | 0.07 | 0.28 | 0.28 | 92 | 1016.4 |
| 20260505012048 | 52 | 128 | 1.0 | 4.0 | 0.07 | 0.27 | 0.27 | 92 | 1016.3 |
| 20260505011547 | 52 | 142 | 1.0 | 2.0 | 0.07 | 0.27 | 0.27 | 92 | 1016.3 |
| 20260505011049 | 52 | 142 | 0.0 | 1.0 | 0.08 | 0.27 | 0.27 | 92 | 1016.2 |
| 20260505010545 | 52 | 142 | 0.0 | 4.0 | 0.07 | 0.26 | 0.26 | 92 | 1016.2 |
| 20260505010105 | 53 | 144 | 1.0 | 4.0 | 0.07 | 0.26 | 0.26 | 92 | 1016.5 |
| 20260505005545 | 53 | 155 | 0.0 | 6.0 | 0.08 | 0.26 | 0.26 | 92 | 1016.5 |
| 20260505005045 | 53 | 155 | 2.0 | 6.0 | 0.07 | 0.25 | 0.25 | 92 | 1016.3 |
| 20260505004559 | 53 | 163 | 3.0 | 6.0 | 0.07 | 0.24 | 0.24 | 92 | 1016.1 |
| 20260505004044 | 53 | 162 | 3.0 | 5.0 | 0.06 | 0.23 | 0.23 | 92 | 1016.3 |
| 20260505003544 | 53 | 123 | 1.0 | 5.0 | 0.06 | 0.22 | 0.22 | 92 | 1016.5 |
| 20260505003045 | 53 | 158 | 0.0 | 1.0 | 0.06 | 0.22 | 0.22 | 92 | 1016.7 |
| 20260505002544 | 53 | 158 | 0.0 | 2.0 | 0.06 | 0.21 | 0.21 | 92 | 1016.8 |
| 20260505002046 | 53 | 158 | 0.0 | 2.0 | 0.06 | 0.20 | 0.20 | 92 | 1016.8 |
| 20260505001544 | 53 | 158 | 0.0 | 4.0 | 0.06 | 0.20 | 0.20 | 92 | 1016.6 |
| 20260505001043 | 53 | 158 | 1.0 | 4.0 | 0.05 | 0.19 | 0.19 | 92 | 1016.5 |
| 20260505000542 | 53 | 158 | 1.0 | 4.0 | 0.05 | 0.19 | 0.19 | 92 | 1016.4 |
| 20260505000044 | 53 | 153 | 0.0 | 2.0 | 0.05 | 0.19 | 0.19 | 92 | 1016.8 |
| 20260504235544 | 53 | 153 | 0.0 | 5.0 | 0.05 | 0.18 | 0.18 | 92 | 1016.7 |
| 20260504235043 | 53 | 153 | 1.0 | 5.0 | 0.05 | 0.18 | 0.18 | 92 | 1016.6 |
| 20260504234541 | 52 | 157 | 0.0 | 4.0 | 0.05 | 0.17 | 0.17 | 92 | 1016.6 |
| 20260504234041 | 52 | 88 | 0.0 | 2.0 | 0.06 | 0.17 | 0.17 | 92 | 1016.5 |
| 20260504233542 | 52 | 116 | 0.0 | 2.0 | 0.06 | 0.16 | 0.16 | 91 | 1016.5 |
| 20260504233041 | 52 | 116 | 0.0 | 1.0 | 0.06 | 0.16 | 0.16 | 91 | 1016.5 |
| 20260504232540 | 52 | 116 | 0.0 | 1.0 | 0.06 | 0.15 | 0.15 | 91 | 1016.4 |
| 20260504232040 | 52 | 116 | 0.0 | 4.0 | 0.05 | 0.14 | 0.14 | 91 | 1016.3 |
| 20260504231558 | 52 | 134 | 1.0 | 4.0 | 0.06 | 0.14 | 0.14 | 91 | 1016.8 |
| 20260504231039 | 52 | 86 | 1.0 | 5.0 | 0.06 | 0.14 | 0.14 | 91 | 1017.0 |
| 20260504230539 | 52 | 103 | 1.0 | 5.0 | 0.07 | 0.14 | 0.14 | 91 | 1017.2 |
| 20260504230038 | 52 | 115 | 2.0 | 5.0 | 0.07 | 0.14 | 0.14 | 91 | 1016.9 |
| 20260504225538 | 52 | 155 | 1.0 | 5.0 | 0.07 | 0.13 | 0.13 | 91 | 1016.7 |
| 20260504225038 | 52 | 157 | 1.0 | 5.0 | 0.07 | 0.13 | 0.13 | 91 | 1016.7 |
| 20260504224541 | 52 | 162 | 1.0 | 5.0 | 0.06 | 0.12 | 0.12 | 91 | 1016.7 |
| 20260504224041 | 52 | 160 | 2.0 | 5.0 | 0.06 | 0.11 | 0.11 | 91 | 1016.8 |
| 20260504223538 | 53 | 154 | 2.0 | 5.0 | 0.06 | 0.10 | 0.10 | 91 | 1016.8 |
| 20260504223036 | 53 | 153 | 2.0 | 3.0 | 0.07 | 0.10 | 0.10 | 91 | 1016.8 |
| 20260504222538 | 53 | 140 | 0.0 | 4.0 | 0.06 | 0.09 | 0.09 | 91 | 1017.0 |
| 20260504222039 | 53 | 139 | 1.0 | 4.0 | 0.07 | 0.09 | 0.09 | 91 | 1017.1 |
| 20260504221547 | 53 | 159 | 0.0 | 4.0 | 0.06 | 0.08 | 0.08 | 91 | 1017.1 |
| 20260504221034 | 53 | 159 | 1.0 | 5.0 | 0.06 | 0.08 | 0.08 | 91 | 1017.1 |
| 20260504220535 | 53 | 159 | 3.0 | 5.0 | 0.05 | 0.07 | 0.07 | 91 | 1017.2 |
| 20260504220034 | 53 | 148 | 2.0 | 5.0 | 0.05 | 0.07 | 0.07 | 91 | 1017.2 |
| 20260504215536 | 53 | 188 | 1.0 | 8.0 | 0.05 | 0.06 | 0.06 | 90 | 1017.0 |
| 20260504215036 | 53 | 165 | 3.0 | 8.0 | 0.05 | 0.06 | 0.06 | 90 | 1017.0 |
| 20260504214536 | 53 | 153 | 4.0 | 9.0 | 0.04 | 0.05 | 0.05 | 90 | 1017.0 |
| 20260504214034 | 53 | 148 | 4.0 | 9.0 | 0.05 | 0.05 | 0.05 | 90 | 1017.1 |
| 20260504213533 | 53 | 154 | 3.0 | 7.0 | 0.04 | 0.04 | 0.04 | 90 | 1017.1 |
| 20260504213039 | 53 | 186 | 2.0 | 7.0 | 0.03 | 0.03 | 0.03 | 90 | 1017.1 |
| 20260504212533 | 53 | 161 | 5.0 | 8.0 | 0.02 | 0.02 | 0.02 | 89 | 1017.2 |
| 20260504212034 | 54 | 157 | 4.0 | 8.0 | 0.02 | 0.02 | 0.02 | 90 | 1017.3 |
| 20260504211535 | 54 | 161 | 4.0 | 9.0 | 0.02 | 0.02 | 0.02 | 90 | 1017.2 |
| 20260504211031 | 54 | 144 | 6.0 | 9.0 | 0.02 | 0.02 | 0.02 | 89 | 1017.2 |
| 20260504210531 | 54 | 148 | 7.0 | 9.0 | 0.02 | 0.02 | 0.02 | 89 | 1017.2 |
| 20260504210031 | 54 | 168 | 6.0 | 9.0 | 0.02 | 0.02 | 0.02 | 88 | 1017.1 |
| 20260504205532 | 54 | 160 | 5.0 | 8.0 | 0.01 | 0.01 | 0.01 | 88 | 1017.0 |
| 20260504205033 | 55 | 177 | 3.0 | 8.0 | 0.01 | 0.01 | 0.01 | 88 | 1017.0 |
| 20260504204534 | 55 | 179 | 4.0 | 8.0 | 0.01 | 0.01 | 0.01 | 88 | 1017.0 |
| 20260504204030 | 55 | 155 | 3.0 | 7.0 | 0.00 | 0.00 | 0.00 | 87 | 1016.9 |
| 20260504203530 | 55 | 144 | 1.0 | 6.0 | 0.00 | 0.00 | 0.00 | 87 | 1016.9 |
| 20260504203033 | 55 | 186 | 3.0 | 6.0 | 0.00 | 0.00 | 0.00 | 86 | 1017.0 |
| 20260504202530 | 55 | 167 | 1.0 | 5.0 | 0.00 | 0.00 | 0.00 | 86 | 1017.0 |
| 20260504202029 | 55 | 131 | 1.0 | 5.0 | 0.00 | 0.00 | 0.00 | 85 | 1017.0 |
| 20260504201529 | 55 | 174 | 1.0 | 5.0 | 0.00 | 0.00 | 0.00 | 85 | 1017.0 |
| 20260504201028 | 55 | 174 | 3.0 | 5.0 | 0.00 | 0.00 | 0.00 | 84 | 1017.0 |
| 20260504200528 | 55 | 175 | 1.0 | 6.0 | 0.00 | 0.00 | 0.00 | 84 | 1017.0 |
| 20260504200028 | 55 | 161 | 3.0 | 6.0 | 0.00 | 0.00 | 0.00 | 83 | 1017.0 |
| 20260504195529 | 55 | 167 | 1.0 | 9.0 | 0.00 | 0.00 | 0.00 | 83 | 1017.1 |
| 20260504195028 | 55 | 187 | 5.0 | 9.0 | 0.00 | 0.00 | 0.00 | 83 | 1016.9 |
| 20260504194527 | 56 | 214 | 6.0 | 9.0 | 0.00 | 0.00 | 0.00 | 81 | 1017.0 |
| 20260504194026 | 56 | 198 | 4.0 | 9.0 | 0.00 | 0.00 | 0.00 | 81 | 1017.0 |
| 20260504193528 | 56 | 163 | 4.0 | 9.0 | 0.00 | 0.00 | 0.00 | 81 | 1017.1 |
| 20260504193027 | 56 | 159 | 5.0 | 10.0 | 0.00 | 0.00 | 0.00 | 81 | 1017.1 |
| 20260504192526 | 55 | 188 | 5.0 | 10.0 | 0.00 | 0.00 | 0.00 | 81 | 1017.3 |
| 20260504192028 | 56 | 193 | 5.0 | 8.0 | 0.00 | 0.00 | 0.00 | 81 | 1017.4 |
| 20260504191534 | 56 | 198 | 4.0 | 9.0 | 0.00 | 0.00 | 0.00 | 81 | 1017.4 |
| 20260504191024 | 56 | 184 | 6.0 | 9.0 | 0.00 | 0.00 | 0.00 | 81 | 1017.4 |
| 20260504190525 | 55 | 145 | 6.0 | 10.0 | 0.00 | 0.00 | 0.00 | 81 | 1017.4 |
| 20260504190024 | 55 | 164 | 6.0 | 11.0 | 0.00 | 0.00 | 0.00 | 81 | 1017.3 |
| 20260504185523 | 56 | 200 | 7.0 | 11.0 | 0.00 | 0.00 | 0.00 | 81 | 1017.3 |
| 20260504185022 | 56 | 161 | 6.0 | 11.0 | 0.00 | 0.00 | 0.00 | 82 | 1017.2 |
| 20260504184539 | 56 | 162 | 5.0 | 11.0 | 0.00 | 0.00 | 0.00 | 83 | 1017.1 |
| 20260504184022 | 56 | 159 | 8.0 | 11.0 | 0.00 | 0.00 | 0.00 | 82 | 1017.3 |
| 20260504183522 | 56 | 192 | 6.0 | 12.0 | 0.00 | 0.00 | 0.00 | 82 | 1017.3 |
| 20260504183022 | 56 | 209 | 6.0 | 13.0 | 0.00 | 0.00 | 0.00 | 82 | 1017.3 |
| 20260504182524 | 56 | 192 | 8.0 | 13.0 | 0.00 | 0.00 | 0.00 | 81 | 1017.3 |
| 20260504182021 | 56 | 185 | 8.0 | 13.0 | 0.00 | 0.00 | 0.00 | 81 | 1017.3 |
| 20260504181520 | 56 | 199 | 6.0 | 13.0 | 0.00 | 0.00 | 0.00 | 82 | 1017.3 |
| 20260504181020 | 55 | 211 | 9.0 | 13.0 | 0.00 | 0.00 | 0.00 | 81 | 1017.1 |
| 20260504180520 | 56 | 192 | 7.0 | 12.0 | 0.00 | 0.00 | 0.00 | 81 | 1017.1 |
| 20260504180020 | 56 | 178 | 9.0 | 12.0 | 0.00 | 0.00 | 0.00 | 80 | 1017.0 |
| 20260504175518 | 56 | 182 | 6.0 | 10.0 | 0.00 | 0.00 | 0.00 | 80 | 1016.9 |
| 20260504175021 | 56 | 190 | 6.0 | 11.0 | 0.00 | 0.00 | 0.00 | 80 | 1017.0 |
| 20260504174517 | 56 | 178 | 5.0 | 12.0 | 0.00 | 0.00 | 0.00 | 79 | 1016.9 |
| 20260504174017 | 56 | 172 | 6.0 | 12.0 | 0.00 | 0.00 | 0.00 | 80 | 1016.9 |
| 20260504173517 | 56 | 183 | 4.0 | 11.0 | 0.00 | 0.00 | 0.00 | 80 | 1016.9 |
| 20260504173017 | 56 | 180 | 6.0 | 9.0 | 0.00 | 0.00 | 0.00 | 79 | 1016.8 |
| 20260504172516 | 56 | 156 | 6.0 | 9.0 | 0.00 | 0.00 | 0.00 | 79 | 1016.9 |
| 20260504172016 | 56 | 159 | 5.0 | 9.0 | 0.00 | 0.00 | 0.00 | 79 | 1016.8 |
| 20260504171515 | 56 | 201 | 5.0 | 9.0 | 0.00 | 0.00 | 0.00 | 79 | 1016.8 |
| 20260504171015 | 56 | 172 | 4.0 | 9.0 | 0.00 | 0.00 | 0.00 | 79 | 1016.8 |
| 20260504170515 | 56 | 148 | 6.0 | 11.0 | 0.00 | 0.00 | 0.00 | 78 | 1016.8 |
| 20260504151004 | 55 | 150 | 6.0 | 12.0 | 0.00 | 0.00 | 0.00 | 80 | 1016.2 |
| 20260504150509 | 55 | 163 | 7.0 | 10.0 | 0.00 | 0.00 | 0.00 | 80 | 1016.1 |
| 20260504141003 | 53 | 156 | 2.0 | 7.0 | 0.00 | 0.00 | 0.00 | 83 | 1016.2 |
| 20260504140502 | 53 | 164 | 2.0 | 7.0 | 0.00 | 0.00 | 0.00 | 83 | 1016.2 |
| 20260504130555 | 53 | 156 | 5.0 | 9.0 | 0.00 | 0.00 | 0.00 | 82 | 1015.6 |
| 20260504110547 | 53 | 150 | 1.0 | 4.0 | 0.00 | 0.00 | 0.00 | 81 | 1015.5 |
| 20260504100542 | 53 | 151 | 0.0 | 5.0 | 0.00 | 0.00 | 0.00 | 80 | 1015.4 |